Flight Information

DEPARTURE
MEDFORD, OR
Elevation:
1335
Runways:
14/32 - 8800x150 - ASPH-G
ATIS:
127.25
Ground:
121.8
Tower:
MEDFORD TOWER 119.4
DESTINATION
,
Elevation:
TPA:
1000 (est.)


6818.1 NM66° True-18° Var48° HDG

Flight Plan:
(click to file on line)

1. Type
2. Aircraft Identification
3. Aircraft Type / Special Equipment
4. True Airspeed
kts
5. Departure Airport
(ICAO code)
6. Arriving Airport
(ICAO code)
7. Cruising Altitude
ft
8. Alternate Airport
(ICAO code)
9. Route of Flight
10. Remarks


00:00:00 Departure ATIS: Destination ATIS:

Clearance Limit:
Route:
Altitude: Expect in minutes
Frequency:
Transponder: (7500 Hijack / 7600 Lost Comms / 7700 Emergency)


KMFR 110253Z 31013KT 10SM CLR 10/M01 A3018 RMK AO2 SLP224 T01001011 51009
Time: 2021-04-11T02:53:00Z
1618111295
Winds: 310 @ 13 kts
Visibility: 10.0 sm
Clouds (AGL): CLR
Temperature: 10.0 C
Dew Point: -1.1 C
Pressure: 30.180119 in Hgbr


Notes:

Data extracted from FAA Digital Chart Supplement. Effective: 0901Z Thursday, Feb 25, 2021 to 0901Z Thursday, APR 22, 2021
Current ATIS data is provided courtisy of PilotEdge.